QPF
0.00 0.00 0.00 0.00 0.01 0.01 0.00 0.00 0.00 0.00 0.00 0.00 0.00 0.00 0.00 0.00 0.00 0.00 0.00 0.00 0.00 0.00 0.00 0.00 0.00 0.00 0.00 0.00 0.00 0.02 0.04 0.03 0.04 0.05 0.06 0.07 0.06 0.05 0.04 0.03 0.02 0.02 0.02 0.03
0.00 0.00 0.00 0.00 0.00 0.00 0.00 0.00 0.01 0.00 0.00 0.00 0.00 0.01 0.00 0.00 0.00 0.00 0.00 0.00 0.00 0.00 0.00 0.00 0.00 0.00 0.00 0.01 0.01 0.01 0.03 0.03 0.04 0.05 0.05 0.05 0.05 0.04 0.04 0.03 0.05 0.03 0.03 0.05
0.00 0.00 0.00 0.00 0.00 0.00 0.00 0.00 0.01 0.00 0.00 0.00 0.00 0.02 0.02 0.00 0.00 0.00 0.00 0.00 0.00 0.00 0.00 0.00 0.00 0.00 0.00 0.00 0.01 0.01 0.02 0.02 0.04 0.05 0.05 0.06 0.06 0.06 0.07 0.06 0.06 0.05 0.05 0.05
0.00 0.00 0.00 0.00 0.00 0.00 0.00 0.00 0.00 0.00 0.00 0.00 0.00 0.01 0.01 0.01 0.00 0.00 0.00 0.00 0.00 0.00 0.00 0.00 0.00 0.00 0.00 0.00 0.01 0.01 0.01 0.02 0.03 0.04 0.05 0.07 0.09 0.08 0.08 0.06 0.05 0.04 0.05 0.05
0.00 0.00 0.00 0.00 0.00 0.00 0.00 0.00 0.00 0.00 0.00 0.00 0.00 0.00 0.02 0.02 0.00 0.01 0.00 0.00 0.00 0.00 0.00 0.00 0.00 0.00 0.00 0.00 0.00 0.01 0.01 0.02 0.03 0.03 0.05 0.07 0.09 0.10 0.07 0.06 0.07 0.05 0.04 0.03
0.00 0.00 0.00 0.00 0.00 0.00 0.00 0.00 0.00 0.00 0.00 0.00 0.00 0.00 0.01 0.01 0.00 0.00 0.00 0.00 0.00 0.00 0.00 0.00 0.00 0.00 0.00 0.00 0.00 0.00 0.01 0.02 0.02 0.03 0.04 0.05 0.06 0.07 0.07 0.08 0.09 0.09 0.07 0.05
0.00 0.00 0.00 0.00 0.00 0.00 0.00 0.00 0.00 0.00 0.00 0.00 0.00 0.00 0.00 0.00 0.00 0.00 0.00 0.00 0.00 0.00 0.00 0.00 0.00 0.00 0.00 0.00 0.00 0.00 0.01 0.02 0.02 0.02 0.03 0.03 0.04 0.05 0.06 0.06 0.07 0.08 0.07 0.05
0.00 0.00 0.00 0.00 0.00 0.00 0.00 0.00 0.01 0.01 0.01 0.00 0.00 0.00 0.00 0.00 0.00 0.00 0.00 0.00 0.00 0.00 0.00 0.00 0.00 0.00 0.00 0.00 0.00 0.01 0.01 0.02 0.02 0.02 0.04 0.06 0.05 0.05 0.05 0.06 0.06 0.07 0.05 0.04
0.00 0.00 0.00 0.00 0.00 0.00 0.00 0.00 0.00 0.00 0.01 0.01 0.00 0.00 0.00 0.00 0.00 0.00 0.01 0.01 0.00 0.00 0.00 0.00 0.00 0.00 0.00 0.00 0.00 0.01 0.01 0.02 0.02 0.02 0.05 0.12 0.06 0.03 0.03 0.04 0.04 0.04 0.05 0.04
0.00 0.00 0.00 0.00 0.00 0.00 0.00 0.00 0.00 0.00 0.01 0.01 0.00 0.00 0.00 0.00 0.00 0.00 0.02 0.01 0.00 0.00 0.00 0.00 0.00 0.00 0.00 0.00 0.00 0.00 0.01 0.03 0.03 0.04 0.07 0.11 0.05 0.02 0.02 0.02 0.03 0.05 0.05 0.05
0.00 0.00 0.00 0.00 0.00 0.00 0.00 0.00 0.00 0.00 0.00 0.00 0.01 0.00 0.00 0.00 0.00 0.00 0.00 0.01 0.01 0.00 0.00 0.00 0.00 0.00 0.00 0.00 0.00 0.01 0.01 0.03 0.04 0.04 0.03 0.03 0.03 0.02 0.02 0.02 0.03 0.03 0.05 0.06
0.00 0.00 0.00 0.00 0.00 0.00 0.00 0.00 0.00 0.00 0.00 0.00 0.00 0.02 0.02 0.01 0.01 0.00 0.00 0.01 0.00 0.00 0.00 0.00 0.00 0.00 0.00 0.00 0.01 0.01 0.02 0.04 0.04 0.03 0.03 0.03 0.03 0.03 0.03 0.03 0.03 0.02 0.04 0.06
0.00 0.00 0.00 0.00 0.00 0.00 0.00 0.00 0.00 0.00 0.00 0.00 0.01 0.03 0.05 0.07 0.06 0.01 0.02 0.01 0.00 0.00 0.00 0.00 0.00 0.00 0.00 0.01 0.02 0.02 0.04 0.05 0.04 0.03 0.04 0.04 0.03 0.03 0.02 0.02 0.03 0.03 0.04 0.06
0.00 0.00 0.00 0.00 0.01 0.00 0.00 0.00 0.00 0.00 0.00 0.00 0.00 0.01 0.02 0.03 0.03 0.01 0.01 0.01 0.01 0.04 0.01 0.00 0.00 0.01 0.02 0.02 0.02 0.03 0.04 0.05 0.05 0.04 0.04 0.03 0.02 0.02 0.02 0.03 0.04 0.05 0.06 0.11
0.00 0.00 0.00 0.00 0.00 0.00 0.00 0.00 0.00 0.00 0.00 0.00 0.00 0.00 0.01 0.02 0.01 0.00 0.00 0.01 0.02 0.05 0.03 0.02 0.02 0.03 0.02 0.02 0.02 0.03 0.04 0.05 0.07 0.08 0.03 0.02 0.02 0.01 0.02 0.05 0.12 0.10 0.12 0.18
0.00 0.00 0.00 0.00 0.00 0.00 0.00 0.00 0.00 0.00 0.00 0.00 0.01 0.02 0.04 0.02 0.01 0.00 0.00 0.00 0.01 0.03 0.02 0.01 0.02 0.02 0.02 0.01 0.03 0.07 0.06 0.05 0.04 0.03 0.02 0.01 0.02 0.01 0.01 0.02 0.05 0.08 0.11 0.08
0.00 0.00 0.00 0.00 0.00 0.00 0.00 0.00 0.00 0.00 0.00 0.00 0.01 0.03 0.04 0.02 0.00 0.00 0.01 0.01 0.01 0.02 0.02 0.02 0.02 0.02 0.02 0.01 0.02 0.03 0.04 0.04 0.03 0.02 0.01 0.01 0.02 0.02 0.01 0.01 0.02 0.03 0.03 0.04
0.00 0.00 0.00 0.00 0.00 0.01 0.00 0.00 0.00 0.00 0.00 0.00 0.00 0.01 0.02 0.01 0.00 0.00 0.00 0.01 0.02 0.03 0.05 0.06 0.05 0.02 0.02 0.02 0.01 0.02 0.02 0.01 0.01 0.01 0.02 0.01 0.02 0.02 0.01 0.02 0.02 0.03 0.03 0.04
0.01 0.01 0.01 0.00 0.01 0.01 0.00 0.00 0.00 0.00 0.00 0.00 0.01 0.01 0.05 0.03 0.00 0.00 0.00 0.01 0.02 0.04 0.06 0.08 0.05 0.02 0.01 0.01 0.01 0.01 0.02 0.01 0.02 0.02 0.02 0.02 0.01 0.01 0.01 0.01 0.02 0.04 0.04 0.04
0.01 0.01 0.01 0.01 0.01 0.02 0.02 0.01 0.00 0.00 0.01 0.00 0.00 0.01 0.03 0.02 0.02 0.03 0.01 0.01 0.01 0.04 0.06 0.08 0.03 0.01 0.00 0.00 0.01 0.02 0.03 0.03 0.04 0.03 0.03 0.02 0.02 0.01 0.01 0.02 0.03 0.04 0.04 0.04
0.01 0.01 0.00 0.00 0.01 0.02 0.01 0.02 0.01 0.01 0.02 0.01 0.00 0.00 0.01 0.01 0.02 0.05 0.03 0.03 0.03 0.05 0.07 0.07 0.03 0.01 0.01 0.01 0.02 0.04 0.05 0.05 0.05 0.04 0.03 0.02 0.02 0.02 0.01 0.01 0.02 0.03 0.03 0.04
0.00 0.01 0.00 0.01 0.01 0.02 0.01 0.01 0.02 0.03 0.01 0.01 0.00 0.00 0.00 0.01 0.00 0.02 0.03 0.03 0.05 0.06 0.07 0.05 0.02 0.01 0.01 0.02 0.04 0.04 0.04 0.05 0.07 0.05 0.03 0.03 0.02 0.01 0.02 0.02 0.02 0.02 0.03 0.03
0.01 0.01 0.01 0.01 0.02 0.01 0.00 0.01 0.01 0.02 0.01 0.00 0.00 0.01 0.01 0.01 0.00 0.01 0.01 0.02 0.04 0.07 0.07 0.05 0.04 0.04 0.03 0.03 0.03 0.03 0.03 0.03 0.03 0.02 0.02 0.02 0.02 0.02 0.02 0.03 0.03 0.02 0.03 0.03
0.03 0.02 0.02 0.01 0.01 0.00 0.00 0.01 0.00 0.01 0.02 0.01 0.00 0.02 0.02 0.01 0.01 0.01 0.01 0.02 0.03 0.04 0.05 0.06 0.07 0.09 0.08 0.04 0.03 0.03 0.02 0.02 0.02 0.02 0.02 0.02 0.02 0.02 0.02 0.03 0.03 0.04 0.04 0.05
0.04 0.04 0.04 0.03 0.01 0.01 0.01 0.01 0.00 0.00 0.00 0.00 0.00 0.01 0.01 0.01 0.01 0.01 0.01 0.02 0.02 0.03 0.04 0.05 0.06 0.08 0.12 0.12 0.08 0.04 0.03 0.02 0.02 0.03 0.02 0.02 0.01 0.02 0.03 0.03 0.02 0.02 0.03 0.03
0.05 0.04 0.04 0.05 0.03 0.01 0.00 0.00 0.00 0.01 0.00 0.00 0.00 0.01 0.01 0.01 0.01 0.01 0.01 0.01 0.01 0.02 0.03 0.04 0.04 0.03 0.04 0.06 0.06 0.04 0.03 0.03 0.02 0.02 0.02 0.01 0.01 0.01 0.02 0.02 0.02 0.02 0.03 0.04
MSLP
1006.90 1007.39 1007.76 1008.00 1008.12 1008.14 1008.10 1008.03 1007.93 1007.81 1007.67 1007.48 1007.26 1007.01 1006.76 1006.54 1006.39 1006.36 1006.47 1006.74 1007.14 1007.65 1008.23 1008.83 1009.40 1009.91 1010.35 1010.71 1011.01 1011.26 1011.48 1011.68 1011.88 1012.09 1012.30 1012.50 1012.70 1012.88 1013.05 1013.21 1013.37 1013.52 1013.68 1013.85
1007.61 1007.95 1008.18 1008.30 1008.34 1008.35 1008.35 1008.35 1008.36 1008.34 1008.26 1008.09 1007.82 1007.46 1007.03 1006.60 1006.23 1005.99 1005.93 1006.07 1006.40 1006.90 1007.51 1008.16 1008.80 1009.38 1009.87 1010.27 1010.60 1010.89 1011.14 1011.40 1011.67 1011.94 1012.22 1012.47 1012.69 1012.87 1013.00 1013.10 1013.18 1013.27 1013.39 1013.55
1008.19 1008.35 1008.42 1008.43 1008.42 1008.44 1008.51 1008.63 1008.77 1008.88 1008.89 1008.76 1008.45 1007.98 1007.38 1006.73 1006.13 1005.67 1005.42 1005.43 1005.69 1006.16 1006.79 1007.49 1008.19 1008.82 1009.37 1009.81 1010.18 1010.50 1010.80 1011.11 1011.45 1011.80 1012.14 1012.45 1012.70 1012.87 1012.97 1013.02 1013.03 1013.06 1013.13 1013.26
1008.59 1008.59 1008.51 1008.43 1008.39 1008.45 1008.62 1008.89 1009.19 1009.45 1009.57 1009.48 1009.15 1008.58 1007.81 1006.95 1006.13 1005.45 1005.02 1004.88 1005.05 1005.49 1006.13 1006.86 1007.61 1008.30 1008.89 1009.38 1009.78 1010.13 1010.48 1010.85 1011.25 1011.66 1012.07 1012.44 1012.72 1012.90 1012.97 1012.97 1012.92 1012.88 1012.90 1013.00
1008.83 1008.68 1008.50 1008.35 1008.32 1008.45 1008.74 1009.17 1009.64 1010.05 1010.28 1010.25 1009.89 1009.23 1008.32 1007.27 1006.23 1005.35 1004.74 1004.47 1004.55 1004.95 1005.59 1006.35 1007.14 1007.88 1008.51 1009.03 1009.45 1009.83 1010.21 1010.61 1011.06 1011.54 1012.01 1012.42 1012.74 1012.93 1012.99 1012.94 1012.84 1012.74 1012.68 1012.73
1008.93 1008.68 1008.43 1008.26 1008.26 1008.47 1008.89 1009.46 1010.09 1010.64 1010.97 1010.99 1010.63 1009.89 1008.85 1007.65 1006.43 1005.38 1004.61 1004.22 1004.23 1004.59 1005.23 1006.02 1006.85 1007.62 1008.28 1008.82 1009.25 1009.64 1010.02 1010.45 1010.92 1011.43 1011.95 1012.40 1012.75 1012.95 1013.00 1012.93 1012.77 1012.60 1012.47 1012.44
1008.94 1008.64 1008.36 1008.20 1008.24 1008.53 1009.05 1009.75 1010.51 1011.16 1011.58 1011.63 1011.26 1010.48 1009.36 1008.04 1006.70 1005.51 1004.64 1004.16 1004.11 1004.45 1005.09 1005.90 1006.76 1007.56 1008.24 1008.79 1009.22 1009.59 1009.96 1010.37 1010.85 1011.36 1011.89 1012.37 1012.74 1012.96 1013.01 1012.91 1012.70 1012.45 1012.24 1012.13
1008.92 1008.61 1008.33 1008.19 1008.28 1008.62 1009.22 1009.99 1010.82 1011.54 1012.00 1012.09 1011.72 1010.92 1009.75 1008.37 1006.97 1005.72 1004.78 1004.26 1004.19 1004.52 1005.17 1006.01 1006.89 1007.72 1008.41 1008.96 1009.38 1009.72 1010.05 1010.42 1010.86 1011.35 1011.87 1012.35 1012.73 1012.95 1013.00 1012.87 1012.62 1012.31 1012.01 1011.80
1008.91 1008.62 1008.37 1008.26 1008.37 1008.74 1009.35 1010.14 1010.98 1011.71 1012.18 1012.28 1011.92 1011.13 1009.97 1008.59 1007.19 1005.94 1005.00 1004.49 1004.42 1004.77 1005.45 1006.31 1007.23 1008.08 1008.78 1009.33 1009.72 1010.02 1010.30 1010.61 1010.98 1011.43 1011.91 1012.36 1012.73 1012.95 1012.99 1012.85 1012.56 1012.19 1011.82 1011.51
1008.93 1008.69 1008.49 1008.40 1008.51 1008.85 1009.42 1010.16 1010.94 1011.63 1012.07 1012.16 1011.82 1011.06 1009.96 1008.64 1007.30 1006.11 1005.23 1004.76 1004.74 1005.13 1005.85 1006.75 1007.70 1008.58 1009.31 1009.85 1010.22 1010.49 1010.70 1010.94 1011.24 1011.61 1012.03 1012.44 1012.79 1013.00 1013.03 1012.88 1012.57 1012.16 1011.72 1011.33
1009.02 1008.84 1008.68 1008.60 1008.67 1008.95 1009.42 1010.04 1010.70 1011.29 1011.67 1011.73 1011.41 1010.72 1009.70 1008.50 1007.27 1006.19 1005.41 1005.02 1005.07 1005.51 1006.28 1007.22 1008.22 1009.14 1009.90 1010.46 1010.83 1011.07 1011.23 1011.40 1011.62 1011.91 1012.26 1012.62 1012.93 1013.12 1013.15 1013.01 1012.70 1012.27 1011.79 1011.35
1009.15 1009.05 1008.93 1008.84 1008.86 1009.03 1009.35 1009.81 1010.32 1010.77 1011.05 1011.07 1010.77 1010.15 1009.25 1008.18 1007.10 1006.16 1005.50 1005.20 1005.32 1005.82 1006.63 1007.63 1008.67 1009.64 1010.45 1011.05 1011.45 1011.69 1011.84 1011.96 1012.11 1012.33 1012.61 1012.91 1013.18 1013.36 1013.39 1013.27 1012.98 1012.56 1012.09 1011.62
1009.32 1009.31 1009.22 1009.12 1009.06 1009.10 1009.26 1009.52 1009.84 1010.13 1010.31 1010.28 1009.99 1009.44 1008.66 1007.74 1006.81 1006.01 1005.47 1005.27 1005.44 1005.99 1006.83 1007.86 1008.95 1009.98 1010.86 1011.53 1011.99 1012.28 1012.44 1012.54 1012.66 1012.83 1013.04 1013.29 1013.53 1013.70 1013.75 1013.66 1013.42 1013.06 1012.62 1012.18
1009.51 1009.58 1009.53 1009.42 1009.29 1009.19 1009.18 1009.25 1009.37 1009.50 1009.56 1009.47 1009.19 1008.70 1008.04 1007.25 1006.46 1005.79 1005.34 1005.20 1005.42 1005.98 1006.83 1007.89 1009.01 1010.10 1011.06 1011.83 1012.38 1012.74 1012.96 1013.09 1013.21 1013.34 1013.52 1013.73 1013.95 1014.12 1014.21 1014.17 1014.01 1013.72 1013.36 1012.97
1009.70 1009.84 1009.84 1009.71 1009.51 1009.31 1009.14 1009.03 1008.98 1008.95 1008.90 1008.76 1008.49 1008.06 1007.48 1006.81 1006.13 1005.55 1005.16 1005.05 1005.26 1005.81 1006.64 1007.69 1008.84 1009.98 1011.02 1011.89 1012.56 1013.03 1013.33 1013.53 1013.68 1013.82 1013.98 1014.18 1014.39 1014.58 1014.71 1014.74 1014.67 1014.49 1014.23 1013.94
1009.87 1010.08 1010.11 1009.98 1009.74 1009.44 1009.14 1008.89 1008.70 1008.56 1008.41 1008.23 1007.96 1007.58 1007.08 1006.50 1005.90 1005.37 1005.01 1004.88 1005.06 1005.54 1006.32 1007.33 1008.47 1009.64 1010.75 1011.73 1012.52 1013.12 1013.54 1013.82 1014.03 1014.20 1014.38 1014.58 1014.79 1015.00 1015.18 1015.30 1015.33 1015.27 1015.13 1014.95
1010.00 1010.26 1010.31 1010.19 1009.92 1009.57 1009.19 1008.85 1008.56 1008.33 1008.13 1007.93 1007.67 1007.33 1006.89 1006.38 1005.83 1005.33 1004.96 1004.79 1004.89 1005.29 1005.97 1006.91 1008.01 1009.18 1010.34 1011.40 1012.30 1013.02 1013.56 1013.95 1014.23 1014.45 1014.66 1014.87 1015.10 1015.34 1015.57 1015.77 1015.91 1015.97 1015.96 1015.90
1010.09 1010.36 1010.43 1010.31 1010.03 1009.66 1009.25 1008.86 1008.52 1008.26 1008.04 1007.84 1007.61 1007.32 1006.94 1006.48 1005.97 1005.48 1005.09 1004.86 1004.87 1005.15 1005.72 1006.55 1007.58 1008.72 1009.89 1011.00 1011.98 1012.80 1013.44 1013.93 1014.28 1014.56 1014.80 1015.04 1015.29 1015.56 1015.84 1016.11 1016.34 1016.52 1016.63 1016.69
1010.12 1010.36 1010.43 1010.31 1010.04 1009.67 1009.26 1008.87 1008.54 1008.27 1008.07 1007.91 1007.73 1007.50 1007.18 1006.79 1006.33 1005.85 1005.44 1005.15 1005.07 1005.24 1005.68 1006.39 1007.32 1008.39 1009.52 1010.63 1011.66 1012.54 1013.25 1013.81 1014.23 1014.55 1014.83 1015.09 1015.36 1015.66 1015.98 1016.30 1016.61 1016.89 1017.12 1017.28
1010.08 1010.28 1010.32 1010.19 1009.93 1009.59 1009.20 1008.84 1008.54 1008.32 1008.17 1008.06 1007.95 1007.79 1007.56 1007.24 1006.84 1006.40 1005.99 1005.68 1005.52 1005.59 1005.92 1006.50 1007.30 1008.27 1009.33 1010.40 1011.41 1012.31 1013.06 1013.65 1014.11 1014.47 1014.77 1015.04 1015.33 1015.64 1016.00 1016.37 1016.74 1017.10 1017.42 1017.68
1009.98 1010.11 1010.10 1009.96 1009.71 1009.39 1009.05 1008.74 1008.50 1008.33 1008.25 1008.21 1008.18 1008.12 1007.98 1007.76 1007.44 1007.07 1006.70 1006.38 1006.20 1006.19 1006.42 1006.88 1007.55 1008.40 1009.36 1010.34 1011.30 1012.17 1012.91 1013.51 1013.98 1014.35 1014.66 1014.94 1015.24 1015.57 1015.94 1016.34 1016.77 1017.19 1017.57 1017.91
1009.84 1009.88 1009.81 1009.65 1009.41 1009.12 1008.82 1008.57 1008.38 1008.28 1008.26 1008.30 1008.36 1008.39 1008.36 1008.24 1008.04 1007.76 1007.46 1007.19 1007.01 1006.97 1007.12 1007.49 1008.04 1008.77 1009.60 1010.48 1011.34 1012.14 1012.84 1013.41 1013.87 1014.23 1014.54 1014.83 1015.13 1015.47 1015.85 1016.28 1016.74 1017.20 1017.65 1018.05
1009.67 1009.61 1009.49 1009.30 1009.06 1008.80 1008.54 1008.34 1008.20 1008.16 1008.20 1008.30 1008.43 1008.55 1008.62 1008.61 1008.53 1008.37 1008.17 1007.97 1007.84 1007.81 1007.93 1008.22 1008.68 1009.28 1009.99 1010.75 1011.51 1012.22 1012.84 1013.37 1013.79 1014.14 1014.44 1014.73 1015.02 1015.37 1015.76 1016.20 1016.69 1017.19 1017.68 1018.14
1009.47 1009.34 1009.17 1008.96 1008.73 1008.48 1008.26 1008.09 1008.00 1007.99 1008.06 1008.21 1008.39 1008.57 1008.72 1008.82 1008.85 1008.81 1008.73 1008.63 1008.57 1008.58 1008.71 1008.96 1009.35 1009.86 1010.45 1011.09 1011.74 1012.35 1012.90 1013.36 1013.75 1014.08 1014.36 1014.64 1014.94 1015.28 1015.69 1016.14 1016.65 1017.18 1017.71 1018.22
1009.27 1009.09 1008.89 1008.67 1008.44 1008.22 1008.02 1007.88 1007.80 1007.80 1007.89 1008.04 1008.24 1008.46 1008.67 1008.84 1008.97 1009.04 1009.07 1009.09 1009.12 1009.19 1009.35 1009.59 1009.94 1010.37 1010.88 1011.42 1011.97 1012.49 1012.97 1013.38 1013.73 1014.03 1014.30 1014.58 1014.87 1015.22 1015.63 1016.09 1016.61 1017.17 1017.73 1018.29
1009.05 1008.85 1008.65 1008.44 1008.24 1008.04 1007.86 1007.73 1007.66 1007.65 1007.72 1007.86 1008.05 1008.27 1008.50 1008.72 1008.91 1009.07 1009.20 1009.31 1009.43 1009.58 1009.77 1010.03 1010.36 1010.76 1011.20 1011.67 1012.14 1012.60 1013.01 1013.38 1013.70 1013.98 1014.25 1014.52 1014.82 1015.16 1015.57 1016.04 1016.57 1017.14 1017.73 1018.32
Thickness
5850 5839 5835 5848 5859 5858 5859 5855 5854 5863 5878 5866 5854 5853 5862 5867 5862 5856 5852 5847 5841 5838 5839 5837 5833 5829 5822 5816 5809 5805 5800 5797 5792 5787 5783 5779 5778 5778 5777 5775 5772 5770 5768 5767
5834 5830 5850 5863 5864 5860 5856 5849 5853 5864 5874 5862 5852 5850 5863 5866 5863 5861 5855 5849 5845 5841 5838 5835 5832 5828 5822 5816 5811 5806 5801 5798 5794 5790 5787 5784 5782 5780 5779 5777 5774 5772 5769 5768
5825 5842 5858 5854 5851 5847 5848 5847 5851 5856 5864 5864 5851 5839 5848 5861 5867 5865 5862 5857 5853 5846 5839 5835 5832 5828 5824 5817 5813 5809 5803 5799 5795 5793 5789 5787 5783 5781 5778 5776 5774 5773 5771 5769
5831 5847 5848 5843 5842 5844 5835 5858 5858 5854 5845 5839 5847 5817 5835 5847 5852 5857 5857 5856 5853 5852 5846 5839 5834 5829 5826 5822 5818 5812 5806 5801 5797 5794 5789 5784 5779 5776 5776 5776 5775 5774 5773 5771
5825 5838 5836 5833 5842 5847 5845 5861 5855 5850 5842 5835 5843 5826 5828 5846 5837 5847 5854 5855 5855 5855 5850 5843 5838 5833 5830 5827 5821 5814 5807 5802 5798 5795 5791 5786 5782 5780 5780 5779 5776 5774 5774 5772
5831 5848 5844 5841 5850 5853 5853 5848 5844 5842 5835 5813 5831 5825 5820 5839 5844 5847 5852 5855 5856 5856 5853 5848 5843 5838 5832 5829 5823 5816 5808 5802 5799 5795 5792 5788 5784 5782 5779 5777 5775 5774 5773 5773
5811 5828 5842 5847 5834 5841 5840 5820 5800 5796 5799 5806 5839 5828 5829 5852 5860 5857 5853 5854 5858 5856 5852 5846 5842 5837 5832 5828 5823 5817 5808 5802 5799 5796 5793 5790 5787 5784 5779 5777 5776 5774 5774 5773
5792 5800 5826 5836 5831 5826 5827 5821 5796 5784 5791 5809 5830 5822 5837 5862 5867 5866 5862 5859 5857 5854 5851 5847 5843 5839 5834 5829 5823 5817 5809 5802 5799 5796 5793 5792 5789 5785 5782 5780 5778 5776 5776 5776
5800 5803 5832 5839 5843 5837 5820 5821 5833 5816 5811 5805 5819 5829 5841 5858 5857 5858 5853 5851 5851 5850 5848 5844 5843 5840 5835 5829 5824 5819 5810 5804 5800 5797 5794 5791 5789 5786 5784 5782 5780 5778 5777 5777
5812 5800 5821 5833 5836 5836 5835 5831 5822 5809 5789 5787 5808 5816 5820 5832 5840 5846 5846 5844 5847 5848 5846 5844 5841 5837 5833 5829 5825 5820 5813 5806 5801 5798 5795 5792 5789 5787 5785 5783 5780 5778 5777 5776
5812 5795 5804 5815 5808 5811 5817 5819 5818 5817 5813 5795 5789 5807 5845 5840 5844 5844 5844 5845 5843 5844 5843 5841 5838 5836 5833 5829 5824 5818 5813 5806 5801 5798 5795 5793 5790 5787 5785 5782 5780 5778 5776 5775
5805 5798 5790 5803 5824 5832 5825 5820 5816 5796 5797 5806 5798 5803 5848 5846 5848 5847 5844 5843 5842 5843 5841 5838 5835 5832 5829 5824 5821 5816 5812 5807 5802 5799 5795 5791 5789 5786 5783 5780 5778 5777 5775 5773
5798 5785 5770 5777 5795 5811 5811 5817 5819 5816 5806 5798 5792 5797 5838 5841 5842 5842 5839 5838 5837 5835 5833 5832 5829 5826 5823 5820 5817 5813 5809 5805 5802 5798 5793 5789 5786 5783 5780 5778 5776 5774 5773 5771
5793 5778 5772 5767 5782 5797 5796 5805 5813 5809 5794 5794 5799 5801 5817 5824 5827 5832 5831 5831 5830 5827 5824 5823 5820 5818 5817 5815 5812 5810 5806 5804 5800 5796 5791 5787 5784 5782 5779 5777 5775 5772 5771 5768
5782 5767 5774 5786 5800 5804 5801 5801 5805 5804 5806 5800 5806 5810 5813 5821 5822 5827 5825 5822 5821 5819 5818 5816 5814 5812 5810 5808 5806 5804 5802 5800 5797 5792 5787 5784 5782 5780 5777 5774 5772 5770 5768 5766
5769 5759 5766 5771 5789 5797 5796 5801 5805 5806 5809 5807 5809 5807 5823 5825 5822 5819 5818 5816 5812 5811 5812 5812 5810 5806 5804 5802 5801 5799 5796 5795 5792 5787 5783 5781 5779 5776 5774 5771 5769 5766 5763 5761
5756 5750 5748 5754 5777 5780 5773 5794 5799 5803 5811 5808 5796 5801 5812 5810 5810 5808 5808 5806 5804 5805 5807 5804 5803 5801 5799 5798 5796 5793 5792 5790 5786 5782 5779 5777 5775 5772 5769 5768 5764 5761 5758 5756
5747 5741 5744 5747 5754 5739 5776 5808 5807 5802 5804 5810 5808 5807 5806 5806 5807 5808 5809 5804 5801 5801 5800 5798 5796 5794 5794 5793 5792 5789 5787 5784 5780 5777 5774 5771 5769 5766 5764 5761 5758 5756 5753 5751
5750 5738 5735 5738 5737 5748 5774 5792 5794 5785 5784 5802 5799 5800 5800 5801 5797 5795 5802 5803 5801 5798 5797 5793 5790 5789 5788 5787 5786 5783 5780 5777 5773 5769 5767 5765 5763 5759 5756 5754 5752 5750 5748 5745
5744 5739 5729 5730 5725 5728 5759 5788 5800 5788 5768 5792 5794 5791 5789 5787 5774 5775 5789 5793 5793 5792 5791 5787 5785 5784 5780 5779 5779 5775 5771 5768 5765 5763 5761 5760 5757 5754 5750 5748 5746 5744 5742 5739
5723 5722 5721 5723 5724 5740 5767 5783 5785 5754 5756 5782 5787 5786 5783 5777 5775 5778 5784 5782 5782 5782 5781 5779 5776 5774 5772 5772 5770 5765 5762 5759 5758 5757 5754 5752 5750 5748 5745 5743 5741 5738 5735 5733
5719 5718 5716 5720 5716 5727 5765 5771 5759 5755 5771 5776 5778 5778 5774 5773 5774 5773 5772 5771 5771 5770 5769 5769 5766 5763 5763 5762 5759 5754 5752 5752 5752 5749 5746 5743 5742 5742 5739 5736 5734 5732 5729 5726
5723 5724 5723 5723 5726 5746 5760 5758 5761 5765 5764 5767 5769 5769 5767 5764 5763 5762 5762 5761 5761 5760 5758 5759 5757 5754 5753 5752 5750 5746 5745 5745 5743 5740 5737 5735 5734 5733 5731 5729 5726 5724 5722 5720
5722 5733 5724 5720 5727 5740 5748 5752 5756 5759 5758 5760 5762 5761 5758 5753 5753 5753 5752 5751 5751 5750 5750 5750 5747 5744 5741 5742 5741 5740 5739 5738 5735 5732 5729 5727 5726 5724 5722 5720 5719 5717 5714 5712
5708 5716 5714 5709 5718 5726 5733 5739 5745 5748 5751 5752 5752 5752 5750 5747 5745 5743 5742 5742 5742 5742 5741 5739 5737 5734 5733 5733 5730 5732 5731 5730 5727 5724 5722 5720 5719 5716 5712 5709 5706 5707 5702 5701
5704 5702 5699 5698 5710 5715 5720 5731 5736 5735 5736 5739 5739 5739 5741 5741 5737 5736 5734 5734 5734 5733 5733 5731 5729 5727 5725 5723 5722 5724 5724 5722 5719 5716 5715 5715 5713 5710 5706 5702 5697 5693 5692 5691